[[{"header":{"parameterUnit":"m.s-1","parameterCategory":1,"la1":30.2991,"la2":30.254,"lo1":-89.0895,"lo2":-89.0444,"dy":0.0017,"dx":0.0017,"nx":28,"ny":28,"refTime":"2024-11-30T03:00:00:Z","depth":0,"parameterNumber":2,"parameterNumberName":"U-component_of_WINDS"},"data":[0,0,0,0,0,0,0,0,0,0,0,0,0,0,0,0,0,0,0,0,0,0,0,0,0,0,0,0,0,0,0,0,0,0,0,0,0,0,0,0,0,0,0,0,0,0,0,0,0,0,0,0,0,0,0,0,0,0,-3.1721,-3.1722,0,-3.18,-3.1801,-3.1802,-3.1766,-3.1764,-3.1762,-3.176,-3.1838,-3.1842,-3.1845,0,0,0,0,0,0,0,0,0,0,0,0,0,-3.1534,-3.1538,-3.1721,-3.1722,-3.1723,-3.18,-3.1801,-3.1802,-3.1766,-3.1764,-3.1761,-3.1759,-3.1836,-3.1841,-3.1846,0,0,0,0,0,0,0,0,0,0,0,0,0,-3.1615,-3.1539,-3.1721,-3.1714,-3.1715,-3.18,-3.1801,-3.1802,-3.1767,-3.1764,-3.1761,-3.1758,-3.1835,-3.1841,-3.1846,-3.1941,0,0,-3.1864,-3.1867,0,0,0,0,0,0,0,0,-3.161,-3.1621,-3.1714,-3.1715,-3.1715,-3.177,-3.1764,-3.1849,-3.1767,-3.1747,-3.176,-3.1757,-3.1817,-3.1824,-3.1846,-3.1945,-3.1948,-3.1865,-3.1868,-3.1871,-3.1872,0,0,0,0,0,0,0,-3.1605,-3.1618,-3.1752,-3.1716,-3.1716,-3.1706,-3.1714,-3.178,-3.1797,-3.1748,-3.1746,-3.1756,-3.1817,-3.184,-3.1847,-3.1949,-3.1865,-3.187,-3.1873,-3.1876,-3.2127,-3.2131,0,0,0,0,0,0,-3.16,-3.1613,-3.1749,-3.1754,-3.1655,-3.1712,-3.1721,-3.1755,-3.1797,-3.18,-3.1758,-3.1754,-3.1832,-3.184,-3.185,-3.1961,-3.1871,-3.1876,-3.188,-3.2124,-3.2128,-3.2132,0,0,0,0,0,0,-3.1596,-3.1612,-3.1746,-3.1683,-3.17,-3.1718,-3.1757,-3.1759,-3.1781,-3.1804,-3.1807,-3.1779,-3.183,-3.1842,-3.1918,-3.1964,-3.1879,-3.1884,-3.2121,-3.2126,-3.213,-3.2187,0,0,0,0,0,0,-3.1591,-3.1611,-3.1648,-3.1684,-3.1703,-3.1815,-3.176,-3.1762,-3.1792,-3.1787,-3.1824,-3.1828,-3.1828,-3.191,-3.1924,-3.197,-3.1889,-3.2117,-3.2123,-3.2128,-3.2181,-3.2193,-3.2203,0,0,0,0,0,-3.1584,-3.1661,-3.165,-3.1667,-3.175,-3.1818,-3.1828,-3.1828,-3.1796,-3.1833,-3.1847,-3.1826,-3.1957,-3.1918,-3.1934,-3.1982,-3.2114,-3.2121,-3.2128,-3.2176,-3.2191,-3.2203,0,0,0,0,0,0,-3.1629,-3.1666,-3.1654,-3.1745,-3.1779,-3.1811,-3.1858,-3.1844,-3.1887,-3.188,-3.1877,-3.1886,-3.1965,-3.1982,-3.1938,-3.2075,-3.203,-3.2041,-3.2061,-3.2075,-3.2086,-3.2079,-3.1893,0,0,0,0,0,-3.1649,-3.1702,-3.1731,-3.1808,-3.1826,-3.1839,-3.1869,-3.1866,-3.19,-3.1913,-3.1933,-3.1966,-3.2014,-3.2046,-3.2092,-3.2184,-3.219,-3.2225,-3.2236,-3.2245,-3.2254,-3.2301,-3.2316,-3.2155,-3.2155,-3.2155,0,0,-3.1692,-3.1719,-3.1752,-3.1818,-3.1844,-3.1897,-3.1851,-3.191,-3.1948,-3.1922,-3.1995,-3.2011,-3.2048,-3.2132,-3.217,-3.2148,-3.23,-3.2254,-3.2261,-3.2265,-3.231,-3.2325,-3.2339,-3.216,-3.2159,-3.2158,0,0,-3.1796,-3.1823,-3.1889,-3.1916,-3.1955,-3.1964,-3.198,-3.2015,-3.2024,-3.2098,-3.2079,-3.2124,-3.2208,-3.2234,-3.2258,-3.2372,-3.2353,-3.2387,-3.2444,-3.2491,-3.2503,-3.2514,-3.2552,-3.2567,-3.2396,-3.2396,-3.2396,0,-3.1844,-3.1924,-3.1925,-3.1985,-3.2013,-3.1993,-3.2059,-3.2084,-3.2136,-3.2156,-3.2131,-3.2234,-3.2258,-3.2346,-3.2374,-3.2395,-3.2412,-3.2382,-3.2502,-3.2513,-3.2523,-3.2559,-3.2574,-3.24,-3.2399,-3.2399,-3.2398,0,-3.1979,-3.2036,-3.2084,-3.2135,-3.217,-3.2233,-3.2241,-3.2276,-3.227,-3.228,-3.2355,-3.2382,-3.2432,-3.2453,-3.2448,-3.2541,-3.2526,-3.2502,-3.2456,-3.2542,-3.2576,-3.259,-3.2405,-3.2403,-3.2402,-3.2401,0,0,-3.2113,-3.2164,-3.2182,-3.2204,-3.2246,-3.2288,-3.2349,-3.2399,-3.2427,-3.2464,-3.2513,-3.2585,-3.2562,-3.259,-3.2587,-3.2628,-3.2714,-3.2599,-3.2599,-3.2617,-3.2815,-3.2831,-3.2847,-3.2703,-3.2705,-3.2708,-3.2811,0,-3.2219,-3.2327,-3.2328,-3.2427,-3.2477,-3.2458,-3.2511,-3.2541,-3.2553,-3.2596,-3.2608,-3.2657,-3.2625,-3.2641,-3.2681,-3.2695,-3.2753,-3.2688,-3.2746,-3.2748,-3.2736,-3.2865,-3.2883,-3.2979,-3.2824,-3.2827,-3.2828,0,-3.2356,-3.2398,-3.2501,-3.2534,-3.2555,-3.2603,-3.2647,-3.269,-3.2723,-3.2728,-3.2759,-3.275,-3.2811,-3.2765,-3.2847,-3.2802,-3.2826,-3.2837,-3.284,-3.2844,-3.2792,-3.287,-3.301,-3.3024,-3.285,-3.2848,-3.2846,0,-3.244,-3.2522,-3.2594,-3.2614,-3.2655,-3.2688,-3.2707,-3.2737,-3.2767,-3.2806,-3.2824,-3.2869,-3.2894,-3.2928,-3.2931,-3.2898,-3.3013,-3.2968,-3.3017,-3.3017,-3.304,-3.3038,-3.3184,-3.306,-3.306,-3.3059,-3.3059,0,-3.2557,-3.262,-3.2632,-3.2676,-3.2746,-3.2747,-3.2815,-3.2831,-3.2858,-3.2903,-3.289,-3.2933,-3.2935,-3.2979,-3.2981,-3.3047,-3.3059,-3.3063,-3.3063,-3.3063,-3.3062,-3.3077,-3.307,-3.3063,-3.3062,-3.3062,-3.3061,0,-3.2662,-3.2673,-3.2749,-3.2782,-3.2792,-3.2841,-3.2868,-3.2909,-3.2919,-3.2977,-3.299,-3.3005,-3.3055,-3.3062,-3.3121,-3.3123,-3.3201,-3.3195,-3.319,-3.3188,-3.3236,-3.323,-3.3394,-3.3415,-3.328,-3.3281,-3.3282,0,-3.2735,-3.2783,-3.2821,-3.285,-3.2871,-3.2919,-3.2948,-3.2951,-3.2982,-3.3024,-3.3059,-3.3108,-3.3147,-3.3228,-3.3243,-3.3287,-3.328,-3.3335,-3.3287,-3.3285,-3.3278,-3.3274,-3.3278,-3.3343,-3.3345,-3.3346,-3.3347,0,-3.2862,-3.2864,-3.2908,-3.2954,-3.2989,-3.3025,-3.3059,-3.3084,-3.309,-3.3126,-3.3177,-3.3208,-3.3267,-3.3315,-3.3359,-3.3376,-3.3362,-3.3362,-3.3375,-3.3375,-3.3369,-3.3371,-3.3213,-3.3358,-3.3357,-3.3356,-3.3355,-3.3355,-3.2951,-3.2992,-3.3025,-3.3073,-3.3099,-3.3131,-3.317,-3.3185,-3.3228,-3.3277,-3.3276,-3.3332,-3.3363,-3.342,-3.344,-3.3483,-3.3465,-3.3485,-3.3489,-3.3493,-3.3497,-3.3365,-3.3491,-3.3491,-3.349,-3.349,-3.349,0,-3.3075,-3.3095,-3.314,-3.3187,-3.3225,-3.321,-3.3246,-3.3278,-3.3328,-3.3358,-3.3397,-3.3455,-3.3501,-3.352,-3.3565,-3.3595,-3.359,-3.3607,-3.3603,-3.3607,-3.3512,-3.3495,-3.361,-3.361,-3.361,-3.361,-3.361,-3.361,-3.3144,-3.3212,-3.3218,-3.3298,-3.3317,-3.3372,-3.3394,-3.3422,-3.3446,-3.3512,-3.355,-3.3563,-3.3588,-3.3634,-3.3675,-3.3679,-3.3695,-3.3715,-3.3716,-3.3626,-3.3614,-3.3602,-3.3586,-3.3719,-3.3719,-3.3807,-3.3808,-3.3809]},{"header":{"parameterUnit":"m.s-1","parameterCategory":1,"la1":30.2991,"la2":30.254,"lo1":-89.0895,"lo2":-89.0444,"dy":0.0017,"dx":0.0017,"nx":28,"ny":28,"refTime":"2024-11-30T03:00:00:Z","depth":0,"parameterNumber":3,"parameterNumberName":"V-component_of_WINDS"},"data":[0,0,0,0,0,0,0,0,0,0,0,0,0,0,0,0,0,0,0,0,0,0,0,0,0,0,0,0,0,0,0,0,0,0,0,0,0,0,0,0,0,0,0,0,0,0,0,0,0,0,0,0,0,0,0,0,0,0,-1.1464,-1.1465,0,-1.1516,-1.1517,-1.1517,-1.1535,-1.1534,-1.1534,-1.1534,-1.1589,-1.1591,-1.1592,0,0,0,0,0,0,0,0,0,0,0,0,0,-1.1382,-1.1383,-1.1464,-1.1465,-1.1466,-1.1516,-1.1517,-1.1518,-1.1535,-1.1534,-1.1534,-1.1534,-1.1589,-1.1591,-1.1593,0,0,0,0,0,0,0,0,0,0,0,0,0,-1.1424,-1.1384,-1.1464,-1.148,-1.1482,-1.1516,-1.1517,-1.1518,-1.1535,-1.1534,-1.1534,-1.1534,-1.1588,-1.159,-1.1593,-1.1615,0,0,-1.1601,-1.1602,0,0,0,0,0,0,0,0,-1.1422,-1.1427,-1.1477,-1.1479,-1.1481,-1.1519,-1.1508,-1.155,-1.1535,-1.1515,-1.1534,-1.1534,-1.1566,-1.157,-1.1581,-1.1618,-1.162,-1.1601,-1.1602,-1.1603,-1.1604,0,0,0,0,0,0,0,-1.1419,-1.1425,-1.1485,-1.1478,-1.1481,-1.1485,-1.1491,-1.1516,-1.1542,-1.1517,-1.1518,-1.1524,-1.1567,-1.1578,-1.1582,-1.1621,-1.1601,-1.1603,-1.1604,-1.1605,-1.1678,-1.1679,0,0,0,0,0,0,-1.1413,-1.1422,-1.1483,-1.1487,-1.145,-1.1487,-1.1493,-1.1507,-1.1542,-1.1546,-1.1524,-1.1524,-1.1574,-1.1579,-1.1584,-1.1612,-1.1603,-1.1606,-1.1607,-1.1678,-1.1678,-1.1679,0,0,0,0,0,0,-1.1411,-1.1418,-1.1481,-1.1455,-1.1463,-1.1489,-1.1504,-1.1508,-1.152,-1.1547,-1.1552,-1.1531,-1.1574,-1.1581,-1.1607,-1.1614,-1.1607,-1.1609,-1.1677,-1.1678,-1.1679,-1.1669,0,0,0,0,0,0,-1.1408,-1.1417,-1.1426,-1.1455,-1.1465,-1.1503,-1.1505,-1.151,-1.1524,-1.1525,-1.1555,-1.1559,-1.1574,-1.1603,-1.161,-1.1618,-1.1611,-1.1677,-1.1678,-1.1678,-1.1668,-1.1669,-1.1669,0,0,0,0,0,-1.1405,-1.1421,-1.1426,-1.1433,-1.1475,-1.1503,-1.1509,-1.1525,-1.1524,-1.1533,-1.1551,-1.1558,-1.1613,-1.1606,-1.1613,-1.1622,-1.1676,-1.1677,-1.1678,-1.1668,-1.1669,-1.1669,0,0,0,0,0,0,-1.1393,-1.1425,-1.1431,-1.1456,-1.1477,-1.1506,-1.1517,-1.1525,-1.1547,-1.1547,-1.1567,-1.1574,-1.1598,-1.1613,-1.1605,-1.1645,-1.1645,-1.1647,-1.1635,-1.1635,-1.1636,-1.1632,-1.1613,0,0,0,0,0,-1.1393,-1.1412,-1.144,-1.146,-1.1469,-1.1491,-1.1504,-1.1515,-1.1537,-1.1546,-1.1566,-1.1587,-1.1609,-1.1623,-1.1645,-1.1671,-1.1677,-1.1681,-1.1681,-1.1681,-1.1683,-1.1697,-1.1699,-1.1682,-1.1682,-1.1682,0,0,-1.1393,-1.1414,-1.1425,-1.1457,-1.1474,-1.1494,-1.1499,-1.1519,-1.1534,-1.1549,-1.1575,-1.159,-1.1616,-1.1642,-1.1654,-1.1655,-1.1689,-1.1682,-1.1682,-1.1684,-1.1698,-1.17,-1.1701,-1.1683,-1.1683,-1.1682,0,0,-1.1404,-1.1422,-1.144,-1.1456,-1.1482,-1.1496,-1.1501,-1.1529,-1.1539,-1.1565,-1.1577,-1.1595,-1.1633,-1.165,-1.1664,-1.1681,-1.1689,-1.1688,-1.169,-1.1704,-1.1705,-1.1706,-1.1712,-1.1714,-1.169,-1.169,-1.169,0,-1.1402,-1.1431,-1.1448,-1.1468,-1.1482,-1.1496,-1.1515,-1.1531,-1.1562,-1.1572,-1.1572,-1.1619,-1.1637,-1.1667,-1.1671,-1.1682,-1.1688,-1.1684,-1.1703,-1.1705,-1.1706,-1.1712,-1.1714,-1.1689,-1.1689,-1.1689,-1.1689,0,-1.1427,-1.1447,-1.1459,-1.1488,-1.1504,-1.1523,-1.1543,-1.1557,-1.1567,-1.1581,-1.1608,-1.163,-1.1656,-1.1665,-1.1674,-1.1696,-1.1695,-1.1699,-1.1699,-1.1707,-1.1713,-1.1715,-1.1689,-1.1689,-1.1689,-1.1689,0,0,-1.1431,-1.1469,-1.1473,-1.1486,-1.1515,-1.1532,-1.1552,-1.1577,-1.1588,-1.1609,-1.1627,-1.1658,-1.1661,-1.1677,-1.1689,-1.1701,-1.1713,-1.1704,-1.1705,-1.1704,-1.1738,-1.1735,-1.1737,-1.1719,-1.1719,-1.172,-1.1736,0,-1.1445,-1.1481,-1.1497,-1.1525,-1.1544,-1.1558,-1.1575,-1.1595,-1.1609,-1.1628,-1.1644,-1.1666,-1.1669,-1.1679,-1.1691,-1.1709,-1.172,-1.1708,-1.1735,-1.1736,-1.1728,-1.174,-1.1737,-1.1751,-1.1738,-1.1739,-1.1739,0,-1.1467,-1.1487,-1.1517,-1.1544,-1.1552,-1.1568,-1.1592,-1.1609,-1.1632,-1.1642,-1.1659,-1.1671,-1.1693,-1.1691,-1.1722,-1.1713,-1.1725,-1.1736,-1.1737,-1.174,-1.1738,-1.1743,-1.1756,-1.1758,-1.1743,-1.1742,-1.1742,0,-1.1466,-1.1501,-1.1524,-1.1535,-1.1566,-1.1577,-1.159,-1.1613,-1.1627,-1.1648,-1.1658,-1.1681,-1.1695,-1.1713,-1.1731,-1.1728,-1.176,-1.176,-1.1768,-1.1768,-1.1774,-1.1773,-1.1789,-1.1783,-1.1783,-1.1783,-1.1783,0,-1.148,-1.1498,-1.1524,-1.1538,-1.1558,-1.1576,-1.1596,-1.1611,-1.1631,-1.1648,-1.1662,-1.1678,-1.1701,-1.172,-1.1734,-1.1757,-1.1763,-1.1772,-1.1775,-1.177,-1.1769,-1.1778,-1.1778,-1.1783,-1.1783,-1.1783,-1.1783,0,-1.1482,-1.1501,-1.1526,-1.1553,-1.1561,-1.1575,-1.1599,-1.1613,-1.1628,-1.1649,-1.1656,-1.1679,-1.1702,-1.1722,-1.1753,-1.1762,-1.1786,-1.1791,-1.1778,-1.178,-1.1787,-1.1786,-1.1808,-1.1812,-1.1804,-1.1804,-1.1804,0,-1.149,-1.1504,-1.1533,-1.1545,-1.1558,-1.1578,-1.1592,-1.161,-1.1625,-1.1652,-1.1663,-1.1687,-1.1707,-1.1743,-1.1763,-1.1787,-1.1792,-1.1798,-1.1796,-1.179,-1.1792,-1.179,-1.1792,-1.1798,-1.1798,-1.1798,-1.1798,0,-1.1501,-1.1509,-1.1529,-1.1551,-1.1567,-1.1586,-1.1605,-1.1615,-1.1637,-1.1653,-1.1676,-1.1691,-1.1722,-1.1746,-1.1772,-1.1787,-1.1796,-1.1799,-1.1802,-1.1797,-1.1789,-1.1793,-1.1778,-1.1798,-1.1798,-1.1798,-1.1798,-1.1798,-1.1506,-1.1519,-1.1541,-1.1562,-1.1578,-1.1596,-1.161,-1.1627,-1.1647,-1.1673,-1.1683,-1.1707,-1.173,-1.1765,-1.178,-1.1799,-1.1801,-1.1805,-1.1806,-1.1807,-1.1806,-1.1786,-1.1804,-1.1804,-1.1804,-1.1804,-1.1804,0,-1.1517,-1.1532,-1.1551,-1.1577,-1.1594,-1.1601,-1.1623,-1.1637,-1.1657,-1.1677,-1.1697,-1.1723,-1.1746,-1.1769,-1.1793,-1.1804,-1.1809,-1.181,-1.1809,-1.1812,-1.1804,-1.1798,-1.1805,-1.1805,-1.1805,-1.1805,-1.1805,-1.1805,-1.1525,-1.1547,-1.1558,-1.1588,-1.1603,-1.1626,-1.1638,-1.1654,-1.167,-1.17,-1.1718,-1.1732,-1.1754,-1.1779,-1.1801,-1.1807,-1.1815,-1.1815,-1.1822,-1.1813,-1.1813,-1.1813,-1.1808,-1.1816,-1.1816,-1.1829,-1.1829,-1.1829]}]]